{"data":{"norad_id":57750,"intl_designator":"2023-131U","name":"STARLINK-30357","alt_names":[],"object_type":"PAYLOAD","status":"ACTIVE","operator":null,"country":"US","launch_date":"2023-09-01","launch_site_code":"AFETR","launch_vehicle":null,"mission":null,"orbit_class":"UNKNOWN","rcs_meters":null,"size_class":null,"mass_kg":null,"dimensions":null,"purposes":["comms"],"wikipedia_slug":null,"has_3d_model":false,"image_url":null,"decayed_at":null,"tle_current":{"epoch":"2026-09-20T02:41:03.643872Z","epoch_age_seconds":164842,"freshness":"FRESH","line1":"1 57750U 23131U   26263.11184773  .00000909  00000+0  42541-4 0  9992","line2":"2 57750  43.0050 161.8766 0001303 265.0129  95.0574 15.27583969169556","mean_motion":15.27583969,"eccentricity":0.0001303,"inclination_deg":43.005,"raan_deg":161.8766,"arg_perigee_deg":265.0129,"mean_anomaly_deg":95.0574,"bstar":4.2541e-5,"rev_number":16955,"period_min":94.266503787852,"perigee_km":482.14320045179,"apogee_km":483.9312224513,"semimajor_km":6861.1742114515,"source":"CELESTRAK","updated_at":"2026-09-21T09:00:33.682273Z"}}}